Regional Weather Roundup
Issued by NWS New Orleans/Baton Rouge, LA

Home | Current Version | Previous Version | Graphics & Text | Print | Product List | Glossary On
Versions: 1 2 3 4 5 6 7 8 9 10 11 12 13 14 15 16 17 18 19 20 21 22 23 24 25 26 27 28 29 30 31 32 33 34 35 36 37 38 39 40 41 42 43 44 45 46 47 48 49 50
643
ASUS44 KLIX 190505
RWRLIX
NEW ORLEANS REGIONAL WEATHER ROUNDUP
NATIONAL WEATHER SERVICE NEW ORLEANS LA
1100 PM CST THU DEC 18 2014

NOTE: "FAIR" INDICATES FEW OR NO CLOUDS BELOW 12,000 FEET WITH NO
      SIGNIFICANT WEATHER AND/OR OBSTRUCTIONS TO VISIBILITY.
      SKY/WX - SKY CONDITION AND SIGNIFICANT WEATHER.
      TMP - AIR TEMPERATURE.     DP    - DEWPOINT TEMPERATURE.
      RH  - RELATIVE HUMIDITY.   PRES  - PRESSURE.
      HI  - HEAT INDEX.          WCI   - WIND CHILL INDEX.

*  THESE STATIONS ARE NOT NWS OR FAA STATIONS AND ARE NOT UNDER
   NWS QUALITY CONTROL.

LAZ038-040-048-061>063-065>067-069-190600-
SOUTHEAST LOUISIANA

CITY           SKY/WX    TMP DP  RH WIND       PRES   REMARKS
N.O. AUDUBON     N/A     58  56  94 MISG        N/A
N.O. INTL ARPT LGT RAIN  58  53  84 NE8       30.15R
N.O. LAKEFRONT CLOUDY    60  54  80 E8        30.15R
N.O. DOWNTOWN* CLOUDY    57  48  72 E8        30.14S
SLIDELL        CLOUDY    57  52  83 NE6       30.15S
BATON ROUGE    CLOUDY    56  54  93 NE7       30.13F FOG
BOOTHVILLE     CLOUDY    60  58  92 NE6       30.13S
BELLE CHASSE   CLOUDY    57  55  93 NE5       30.14R
BOGALUSA*        N/A     53  50  89 NE3       30.19S
GALLIANO*      LGT RAIN  60  58  96 MISG      30.14R
NEW ROADS*     CLOUDY    55  54  97 E3        30.14R
GONZALES*      CLOUDY    59  57  94 NE6       30.12F
HAMMOND*       NOT AVBL
HOUMA*         LGT RAIN  58  57  97 NE7       30.13S
PORT FOURCHON* CLOUDY    64  61  88 E6        30.15S

$$

MSZ070-080>082-190600-
SOUTHERN MISSISSIPPI

CITY           SKY/WX    TMP DP  RH WIND       PRES   REMARKS
MCCOMB         CLOUDY    51  49  92 NE3       30.16S
GULFPORT       LGT RAIN  58  48  69 N7        30.16R
BILOXI         CLOUDY    59  47  66 NE5       30.16R
PASCAGOULA     CLOUDY    57  45  64 NE6       30.17R

$$

COASTAL OBSERVATIONS
LAKE AND NEARSHORE STATIONS

STATION/POSITION TIME  TEMP    WIND        PRES    WAVE
                       AIR SEA DIR/SP/G            HT/PER
                 (UTC) (F)     (DEG/KT/KT) (MB)    (FT/S)
PASCAGOULA       0500   58      40/  6/  8 1020.6
WAVELAND YACHT   0500   58      40/  6/  6 1020.3
GRAND ISLE       0500   62 62   70/  5/  7 1020.6
SOUTHWEST PASS   0500   64                 1020.3
NEW CANAL        0400   58 58   70/  7/  8 1021.1
SHELL BEACH      0500   59 60   40/  9/ 11 1020.6

OFFSHORE STATIONS

STATION/POSITION TIME  TEMP    WIND        PRES    WAVE
                       AIR SEA DIR/SP/G            HT/PER
                 (UTC) (F)     (DEG/KT/KT) (MB)    (FT/S)
64 S DAUPHIN ISL 0500   69 75  110/  6/  8 1020.1    1/ 3

$$




USA.gov is the U.S. government's official web portal to all federal, state and local government web resources and services.